User: anonymous   Login
Location: Allos
(44.2333°N, 6.6333°E)
Time: 02:11:14
(UTC+00:00)
Language:

H-2A R/B - Orbit

View from above orbital plane
View from above orbital plane
View from above satellite
View from above satellite

Ground track
Ground track

The orbit data is extracted from the following two-line orbital elements,

1 27601U 02056E   21060.10426025 -.00000063  00000-0 -79072-5 0  9999
2 27601  98.2015  88.2955 0071264 232.3478 194.3038 14.31990988951420
Epoch (UTC): 01 March 2021 02:30:08
Eccentricity: 0.0071264
inclination: 98.2015°
perigee height: 734 km
apogee height: 836 km
right ascension of ascending node: 88.2955°
argument of perigee: 232.3478°
revolutions per day: 14.31990988
mean anomaly at epoch: 194.3038°
orbit number at epoch: 95142

The dashed part of the orbit path shows where the satellite is in the earth's shadow,  

DLR